Location: Vinland
(47.7731°N, 122.6974°W)
Time: 19:42:14
(UTC+00:00)

Vanguard 1 Rocket - Pass Details

Date: 29 March 2023
Orbit: 655 x 4220 km, 34.3° (Epoch: 05 June)

Event Time Altitude Azimuth Distance (km) Brightness Sun altitude
Exits shadow 11:26:56 24° 190° (S) 2,952 9.6 -24.0°
Drops below altitude 10° 11:30:56 10° 162° (SSE) 3,368 10.1 -23.5°
Sets 11:33:42 0° 149° (SSE) 3,986 10.7 -23.1°
